www.pogodaiklimat.ru

Погода и климат >> Архив погоды >> Россия >> Красноярский край >> Железногорск


ПОГОДА в Железногорске

  • Прогноз погоды в Железногорске
  • Монитор погоды в Железногорске

АРХИВ ПОГОДЫ в Железногорске

Время (UTC), дата Ветер
(напр.,м/с)
 
Видим.   Явления Облачность Т
(С)
Тd
(С)
f
(%)
Тe
(С)
Тes
(С)
Комфортность P
(гПа)
Po
(гПа)
Тmin
(С)
Tmax
(С)
R
(мм)
R24
(мм)
S
(см)
12 13.05 С 1 н/о н/о +5.6 -3.9 50 +5 +5 1011.9 992.8 +7.4
15 13.05 штиль 0 н/о н/о +1.7 -4.1 65 +1 +1 1012.8 993.5
18 13.05 штиль 0 н/о н/о -1.7 -4.4 82 -3 -3 1013.8 994.3
00 14.05 С 1 н/о н/о +0.4 -1.4 88 -2 -2 1014.7 995.3 -2.3
03 14.05 С 2 н/о н/о +4.0 -1.6 67 +2 +2 1014.6 995.4
06 14.05 С 3 н/о н/о +5.7 -1.2 61 +3 +3 1014.1 995.0
09 14.05 С 1 н/о н/о +7.6 -4.9 41 +7 +7 1013.2 994.3
12 14.05 С 3 н/о н/о +6.6 -3.0 50 +4 +4 1013.2 994.2 +8.9
15 14.05 С 1 н/о н/о +2.6 -2.0 72 +1 +1 1013.7 994.4
18 14.05 С 1 н/о н/о -1.3 -3.2 87 -3 -3 1012.9 993.4
21 14.05 штиль 0 н/о н/о -3.3 -4.2 93 -5 -5 1012.0 992.4
00 15.05 штиль 0 н/о н/о -1.9 -3.0 92 -3 -3 1011.4 991.8 -3.4
06 15.05 С 1 н/о н/о +9.9 -7.0 30 +10 +10 1008.9 990.2
12 15.05 С 1 н/о н/о +10.4 -7.7 27 +11 +11 1010.0 991.3 +12.1
15 15.05 штиль 0 н/о н/о +3.9 -2.4 63 +3 +3 1013.0 993.9
18 15.05 С 1 н/о н/о +3.5 -2.3 66 +2 +2 1014.6 995.4
21 15.05 С 1 н/о н/о +1.2 -2.2 78 -1 -1 1015.3 995.9
00 16.05 С 1 н/о н/о +2.0 -1.6 77 +1 +1 1016.7 997.3 -0.5
03 16.05 С 1 н/о н/о +8.5 -2.1 47 +8 +8 1016.7 997.8
06 16.05 С 2 н/о н/о +11.3 -10.1 21 +11 +11 1015.8 997.1
09 16.05 С 4 н/о н/о +11.1 -10.1 22 +9 +9 1016.0 997.3
21 16.05 штиль 0 н/о н/о +1.2 -5.8 60 +1 +1 1019.6 1000.2
00 17.05 штиль 0 н/о н/о +3.1 -5.7 52 +3 +3 1020.7 1001.3 +0.9
06 17.05 С 2
{11}
н/о н/о +11.4 -8.6 24 +11 +11 1019.8 1001.0
09 17.05 С 3
{11}
н/о н/о +10.0 -4.8 35 +8 +8 1020.3 1001.4
12 17.05 С 1 н/о н/о +10.3 -6.3 31 +11 +11 1020.7 1001.8 +12.3
15 17.05 С 1 н/о н/о +5.7 -4.5 48 +5 +5 1022.0 1002.8
18 17.05 С 1 н/о н/о +4.0 -4.4 54 +3 +3 1023.3 1004.0
21 17.05 штиль 0 н/о н/о +1.8 -5.4 59 +1 +1 1023.2 1003.7
00 18.05 С 1 н/о н/о +4.2 -4.7 52 +3 +3 1023.8 1004.4 +6.8
06 18.05 С 2 н/о н/о +12.9 -7.6 23 +13 +13 1021.0 1002.3
09 18.05 С 3 н/о н/о +14.8 -7.7 20 +14 +14 1018.6 1000.0
12 18.05 С 1 н/о н/о +13.2 -7.0 24 +14 +14 1018.0 999.3 +15.1
18 18.05 штиль 0 н/о н/о +6.2 -6.0 41 +6 +6 1016.5 997.4
21 18.05 С 1 н/о н/о +5.2 -7.4 40 +5 +5 1015.4 996.3
00 19.05 штиль 0 н/о н/о +7.6 -3.8 44 +7 +7 1014.5 995.6 +2.4
03 19.05 С 1 н/о н/о +15.8 -6.5 21 +17 +17 1012.4 994.0
06 19.05 С 1 н/о н/о +21.6 -8.5 12 +20 +20 1009.7 991.7
09 19.05 С 2 н/о н/о +23.1 -8.6 11 +21 +21 комфорт 1007.0 989.2
15 19.05 С 1 н/о н/о +16.9 -6.1 20 +18 +18 1005.6 987.4

 

Местоположение метеостанции Железногорск (Красноярский край, Россия): широта 56.25 долгота 93.52 высота над уровнем моря 165 м.

В архиве по умолчанию представлена погода в Железногорске за последнюю неделю. Архивные данные за месяц целиком и за предыдущие месяцы, начиная с января 2011 года, Вы можете получить, выбрав интересующий диапазон дат из раскрывающегося списка и нажав кнопку "Ввод!".


*Определитесь, кто Вы:
робот инопланетянин человек

Внимание! Время в таблицах - всемирное. Для получения местного времени необходимо прибавить поправку, которая равна 7 ч.

Смотрите также архив погоды в соседних городах и на ближайших метеорологических станциях:

Погода в Сухобузимском (Красноярский край, Россия) (31 км)
Погода в Погорельском Бору (Красноярский край, Россия) (38 км)
Погода в Минино (Красноярский край, Россия) (53 км)
Погода в Красноярске (Красноярский край, Россия) (54 км)
Погода в Роевом Ручье (Красноярский край, Россия) (58 км)
Погода в Шалинском (Красноярский край, Россия) (61 км)
Погода в Емельяново (Красноярский край, Россия) (64 км)
Погода в Уяре (Красноярский край, Россия) (71 км)
Погода в Большой Мурте (Красноярский край, Россия) (76 км)
Погода в Шумихе (Красноярский край, Россия) (83 км)

Пояснения к столбцам:

Ветер - указаны скорость ветра в м/с - средняя за 10 мин, порывы в срок и между сроками (в фигурных скобках) и направление, откуда дует ветер: С - северный, СВ - северо-восточный, В - восточный, ЮВ - юго-восточный, Ю - южный, ЮЗ - юго-западный, З - западный, СЗ - северо-западный.
Видимость - горизонтальная дальность видимости в метрах или километрах. При видимости от 1 до 10 км при отсутствии осадков обычно наблюдается дымка, при ухудшении видимости до 1 км и менее - туман. В сухую погоду видимость может ухудшаться дымом, пылью или мглою.
Явления - указаны атмосферные явления, наблюдавшиеся в срок или в последний час перед сроком; фигурными скобками обозначены явления, наблюдавшиеся между сроками (за 1-3 часа до срока); квадратными скобками обозначены град или гололедные отложения с указанием их диаметра в мм.
Облачность - указаны через наклонную черту общая и нижняя облачность в баллах и высота нижней границы облаков в метрах; квадратными скобками обозначены формы облаков: Ci - перистые, Cs - перисто-слоистые, Cc - перисто-кучевые, Ac - высококучевые, As - высокослоистые, Sc - слоисто-кучевые, Ns - слоисто-дождевые, Cu - кучевые, Cb - кучево-дождевые. Подробнее классификацию облаков см. в Атласе облаков (PDF).
T - Температура воздуха - температура, измеренная на высоте 2 м над землей.
Td - Температура точки росы - температура, при понижении до которой содержащийся в воздухе водяной пар достигнет насыщения.
f - Относительная влажность воздуха - влажноcть воздуха, измеренная на высоте 2 м над землей.
Te - Эффективная температура - температура, которую ощущает одетый по сезону человек в тени. Характеристика душности погоды. При расчете учитывается влияние влажности воздуха и скорости ветра на теплоощущения человека.
Tes - Эффективная температура на солнце - температура, которую ощущает человек, с поправкой на солнечный нагрев. Характеристика знойности погоды. Зависит от высоты солнца над горизонтом, облачности и скорости ветра. Ночью, в пасмурную погоду, а также при ветре 12 м/с и более поправка равна нулю.
P - Атмосферное давление - приведенное к уровню моря атмосферное давление.
Po - Атмосферное давление - измеренное на уровне метеостанции атмосферное давление.
Tmin - Минимальная температура - минимум температуры воздуха на высоте 2 м над землей.
Tmax - Максимальная температура - максимум температуры воздуха на высоте 2 м над землей.
R - Количество осадков - Количество выпавших осадков за период времени, мм. При наведении курсора мыши на число - период времени, за который выпало указанное количество осадков.
R24 - Количество осадков - Количество выпавших осадков за 24 часа, мм.
S - Снежный покров - Высота снежного покрова, см. При наведении курсора мыши на число - состояние снежного покрова и степень покрытия местности в баллах.